Lawrenceville, IL

10:15 PM CDT on October 22, 2017 (GMT -0500)
Lawrenceville-Vincennes International

Weather History for KLWV - April, 2013

Change the Weather History Date:

Sunday, April 7, 2013

  Actual Average Record
Temperature  
Mean Temperature 66 °F 53 °F  
Max Temperature 76 °F 64 °F 84 °F (2001)
Min Temperature 56 °F 42 °F 26 °F (2007)
Degree Days  
Heating Degree Days 0 13  
Month to date heating degree days 117 96  
Since 1 July heating degree days 4632 4393  
Cooling Degree Days 1 1  
Month to date cooling degree days 1 1  
Year to date cooling degree days 1 3  
Growing Degree Days 15 (Base 50)    
Moisture  
Dew Point 51 °F    
Average Humidity 70    
Maximum Humidity 100    
Minimum Humidity 40    
Precipitation  
Precipitation 0.63 in 0.12 in 0.63 in (2013)
Month to date precipitation 0.63 0.78  
Year to date precipitation 12.44 8.60  
Sea Level Pressure  
Sea Level Pressure 29.92 in    
Wind  
Wind Speed 9 mph (SSW)    
Max Wind Speed 22 mph    
Max Gust Speed 30 mph    
Visibility 7 miles    
Events Rain , Thunderstorm    
T = Trace of Precipitation, MM = Missing Value Source: NWS Daily Summary

Daily Weather History Graph

Daily Weather History Graph

Search for Another Location

Airport or City:

Trip Planner

Search our weather history database for the weather conditions in past years. The results will help you decide how hot, cold, wet, or windy it might be!

Date:

Astronomy

Apr. 07, 2013 Rise Set
Actual Time 6:25 AM CDT 7:19 PM CDT
Civil Twilight 5:58 AM CDT 7:47 PM CDT
Nautical Twilight 5:26 AM CDT 8:19 PM CDT
Astronomical Twilight 4:53 AM CDT 8:52 PM CDT
Moon 4:41 AM CDT (4/7) 4:52 PM CDT (4/7)
Length of Visible Light 13h 48m
Length of Day
12h 54m
Waning Crescent, 8% of the Moon is Illuminated
Apr 7
Waning Crescent
Apr 10
New
Apr 18
First Quarter
Apr 25
Full
May 2
Last Quarter

Hourly Weather History & Observations

Time (CDT) Temp. Dew Point Humidity Pressure Visibility Wind Dir Wind Speed Gust Speed Precip Events Conditions
12:53 AM 64.0 °F 39.0 °F 40% 29.85 in 10.0 mi SSW 18.4 mph - N/A   Overcast
1:53 AM 62.1 °F 39.9 °F 44% 29.85 in 10.0 mi SSW 19.6 mph 28.8 mph N/A   Mostly Cloudy
2:53 AM 62.1 °F 41.0 °F 46% 29.84 in 10.0 mi SSW 19.6 mph - N/A   Overcast
3:53 AM 62.1 °F 43.0 °F 50% 29.85 in 10.0 mi SW 17.3 mph - N/A   Overcast
4:53 AM 62.1 °F 45.0 °F 53% 29.86 in 10.0 mi SW 16.1 mph - N/A   Overcast
5:53 AM 59.0 °F 45.0 °F 60% 29.88 in 10.0 mi SW 8.1 mph - N/A   Overcast
6:53 AM 55.9 °F 45.0 °F 67% 29.91 in 10.0 mi Calm Calm - N/A   Mostly Cloudy
7:53 AM 60.1 °F 46.9 °F 62% 29.93 in 10.0 mi SSW 5.8 mph - N/A   Mostly Cloudy
8:53 AM 64.0 °F 48.0 °F 56% 29.94 in 10.0 mi WSW 10.4 mph - N/A   Partly Cloudy
9:53 AM 66.0 °F 48.9 °F 54% 29.94 in 10.0 mi WSW 8.1 mph - N/A   Mostly Cloudy
10:53 AM 69.1 °F 48.0 °F 47% 29.96 in 10.0 mi West 6.9 mph - N/A   Clear
11:53 AM 72.0 °F 48.9 °F 44% 29.95 in 10.0 mi SW 5.8 mph - N/A   Clear
12:53 PM 73.9 °F 48.0 °F 40% 29.94 in 5.0 mi SSW 8.1 mph - N/A   Haze
1:02 PM 73.4 °F 46.4 °F 38% 29.94 in 4.0 mi Variable 3.5 mph - N/A   Haze
1:53 PM 73.9 °F 48.9 °F 41% 29.94 in 10.0 mi SSW 5.8 mph - N/A   Scattered Clouds
2:24 PM 73.4 °F 48.2 °F 41% 29.93 in 3.0 mi Variable 3.5 mph - N/A   Haze
2:53 PM 73.9 °F 50.0 °F 43% 29.93 in 8.0 mi Variable 5.8 mph - N/A   Unknown
3:42 PM 73.4 °F 50.0 °F 44% 29.92 in 4.0 mi Variable 5.8 mph - N/A   Haze
3:53 PM 75.0 °F 50.0 °F 41% 29.91 in 9.0 mi SSW 5.8 mph - N/A   Mostly Cloudy
4:42 PM 73.4 °F 51.8 °F 47% 29.91 in 10.0 mi South 5.8 mph - N/A Thunderstorm Scattered Clouds
4:53 PM 73.9 °F 51.1 °F 45% 29.91 in 10.0 mi SSE 8.1 mph - N/A   Mostly Cloudy
5:39 PM 71.6 °F 55.4 °F 57% 29.91 in 8.0 mi South 8.1 mph - N/A Thunderstorm Partly Cloudy
5:53 PM 70.0 °F 57.9 °F 65% 29.91 in 8.0 mi SE 11.5 mph - N/A Thunderstorm Partly Cloudy
6:05 PM 69.8 °F 57.2 °F 64% 29.92 in 7.0 mi SSE 12.7 mph - N/A   Mostly Cloudy
6:53 PM 64.9 °F 55.0 °F 70% 29.91 in 8.0 mi South 10.4 mph - N/A   Overcast
7:40 PM 62.6 °F 53.6 °F 72% 29.93 in 10.0 mi South 17.3 mph - 0.00 in Rain , Thunderstorm Light Rain
7:53 PM 61.0 °F 54.0 °F 78% 29.94 in 4.0 mi SSW 18.4 mph - 0.02 in Rain , Thunderstorm Light Rain
7:56 PM 60.8 °F 55.4 °F 82% 29.94 in 1.8 mi SSW 19.6 mph - 0.07 in Rain , Thunderstorm Heavy Thunderstorms and Rain
8:20 PM 60.8 °F 55.4 °F 82% 29.94 in 3.0 mi SSW 11.5 mph - 0.27 in Rain , Thunderstorm Thunderstorms and Rain
8:41 PM 59.0 °F 57.2 °F 94% 29.96 in 2.0 mi West 9.2 mph - 0.34 in Rain , Thunderstorm Heavy Rain
8:53 PM 59.0 °F 55.9 °F 90% 29.96 in 1.5 mi West 5.8 mph - 0.43 in Rain Heavy Rain
9:23 PM 57.2 °F 57.2 °F 100% 29.95 in 3.0 mi NNE 3.5 mph - 0.11 in Rain Rain
9:49 PM 57.2 °F 57.2 °F 100% 29.96 in 2.0 mi ESE 8.1 mph - 0.18 in Rain Rain
9:53 PM 57.9 °F 57.0 °F 97% 29.96 in 3.0 mi ESE 4.6 mph - 0.18 in Rain Light Rain
10:53 PM 57.0 °F 57.0 °F 100% 29.94 in 5.0 mi ESE 6.9 mph - 0.00 in   Mostly Cloudy
11:53 PM 57.0 °F 55.0 °F 93% 29.94 in 8.0 mi ESE 6.9 mph - 0.00 in   Overcast